Weather Roundup
Issued by NWS Springfield, MO

Home | Current Version | Previous Version | Text Only | Print | Product List | Glossary On
Versions: 1 2 3 4 5 6 7 8 9 10 11 12 13 14 15 16 17 18 19 20 21 22 23 24 25 26 27 28 29 30 31 32 33 34 35 36 37 38 39 40 41 42 43 44 45 46 47 48 49 50
000
NZUS99 KSGF 190757
HRRSGF

HOURLY WEATHER
NATIONAL WEATHER SERVICE SPRINGFIELD MO
200 AM CST SUN FEB 19 2017

......SGF CWA......

CITY           SKY/WX    TMP DP  RH WIND       PRES   REMARKS
SPRINGFIELD    CLEAR     47  44  90 SE8       29.91S
JOPLIN         CLEAR     48  48 100 S5        29.92R FOG
WEST PLAINS    FOG       45  45 100 S3        29.96F VSB 1/4
ROLLA          CLEAR     49  48  97 S10       29.93R FOG

......SURROUNDING SGF CWA......

CITY           SKY/WX    TMP DP  RH WIND       PRES   REMARKS
CHANUTE        FOG       39  39 100 CALM      29.91R VSB<1/4
PARSONS        FOG       39  39 100 CALM      29.91R VSB 1/4
COFFEYVILLE    FOG       41  41 100 CALM      29.90S VSB 1/4
EMPORIA        CLEAR     47  46  97 SE9       29.86F FOG
HARRISON AR    CLEAR     49  47  93 SE7       29.94S

......KANSAS AND MISSOURI......

CITY           SKY/WX    TMP DP  RH WIND       PRES   REMARKS
KANSAS CTY INT CLEAR     47  46  97 S5        29.89R
SEDALIA        CLEAR     53  49  86 SW9       29.91F
ST JOSEPH      CLEAR     39  34  82 CALM      29.89R
ST LOUIS       CLEAR     51  47  86 SW5       29.94R
WICHITA        PTCLDY    44  43  96 S7        29.86R
TOPEKA         PTCLDY    49  45  86 CALM      29.89R
OLATHE         CLEAR     48  48 100 S5        29.90R

......TENNESSEE......

CITY           SKY/WX    TMP DP  RH WIND       PRES   REMARKS
MEMPHIS        NOT AVBL
NASHVILLE      PTCLDY    50  47  89 S5        29.98F

......ARKANSAS.......

CITY           SKY/WX    TMP DP  RH WIND       PRES   REMARKS
FAYETTEVILLE   CLEAR     40  40 100 CALM      29.93S FOG
FT SMITH       CLEAR     50  48  93 NE5       29.92S
LITTLE ROCK    FOG       45  45 100 CALM      29.96S VSB 1

......OKLAHOMA.......

CITY           SKY/WX    TMP DP  RH WIND       PRES   REMARKS
TULSA          CLEAR     47  47 100 SE3       29.89R FOG
PONCA CITY     CLEAR     50  47  89 S5        29.88R
MCALESTER      PTCLDY    54  50  86 E5        29.89S
OKLAHOMA CITY  CLEAR     47  46  97 SE6       29.87R

......IOWA............

CITY           SKY/WX    TMP DP  RH WIND       PRES   REMARKS
DES MOINES     NOT AVBL
QUAD CITIES    CLOUDY    33  28  81 CALM      29.90R

......ILLINOIS........

CITY           SKY/WX    TMP DP  RH WIND       PRES   REMARKS
QUINCY         NOT AVBL
CHICAGO        PTCLDY    39  34  82 CALM      29.88R




USA.gov is the U.S. government's official web portal to all federal, state and local government web resources and services.